[[{"header":{"parameterUnit":"m.s-1","parameterCategory":1,"la1":30.2991,"la2":30.254,"lo1":-89.0895,"lo2":-89.0444,"dy":0.0017,"dx":0.0017,"nx":28,"ny":28,"refTime":"2024-02-03T03:00:00:Z","depth":0,"parameterNumber":2,"parameterNumberName":"U-component_of_WINDS"},"data":[0,0,0,0,0,0,0,0,0,0,0,0,0,0,0,0,0,0,0,0,0,0,0,0,0,0,0,0,0,0,0,0,0,0,0,0,0,0,0,0,0,0,0,0,0,0,0,0,0,0,0,0,0,0,0,0,0,0,3.4814,3.4815,0,3.4972,3.4973,3.4975,3.4977,3.4975,3.4972,3.4971,3.5137,3.5143,3.5149,0,0,0,0,0,0,0,0,0,0,0,0,0,3.4518,3.4524,3.4814,3.4816,3.4817,3.4971,3.4974,3.4976,3.4977,3.4974,3.4972,3.497,3.5135,3.5142,3.515,0,0,0,0,0,0,0,0,0,0,0,0,0,3.4659,3.4526,3.4813,3.4837,3.484,3.4971,3.4974,3.4976,3.4977,3.4974,3.4971,3.4968,3.5132,3.5142,3.5151,3.527,0,0,3.518,3.5184,0,0,0,0,0,0,0,0,3.4651,3.4669,3.4831,3.4835,3.4839,3.4951,3.493,3.5075,3.4978,3.4925,3.4971,3.4967,3.5078,3.5092,3.5128,3.5278,3.5285,3.5181,3.5186,3.5191,3.5193,0,0,0,0,0,0,0,3.4641,3.4663,3.4876,3.4834,3.4839,3.4841,3.4858,3.4958,3.5017,3.493,3.493,3.4949,3.508,3.5119,3.5132,3.5288,3.518,3.5189,3.5195,3.5198,3.5546,3.555,0,0,0,0,0,0,3.4626,3.4655,3.4871,3.4881,3.4736,3.4849,3.4867,3.4918,3.5016,3.5028,3.4951,3.4948,3.5104,3.5121,3.5138,3.5286,3.519,3.5199,3.5205,3.5543,3.5547,3.5551,0,0,0,0,0,0,3.4619,3.4645,3.4865,3.4768,3.4796,3.4857,3.4915,3.4923,3.4962,3.5032,3.5043,3.498,3.5103,3.5125,3.5238,3.5292,3.5204,3.5212,3.5539,3.5544,3.5549,3.5581,0,0,0,0,0,0,3.4611,3.4643,3.4687,3.4769,3.4801,3.496,3.4918,3.4928,3.4978,3.4976,3.5062,3.5073,3.5102,3.5223,3.5247,3.5303,3.522,3.5534,3.5541,3.5548,3.5576,3.5587,3.5597,0,0,0,0,0,3.46,3.4691,3.469,3.4716,3.4858,3.4963,3.4982,3.5012,3.4982,3.5029,3.5074,3.5071,3.5282,3.5235,3.5262,3.5321,3.5531,3.5539,3.5547,3.5571,3.5585,3.5597,0,0,0,0,0,0,3.4615,3.4702,3.4701,3.482,3.4884,3.4963,3.5022,3.5025,3.51,3.5094,3.5129,3.5149,3.5262,3.5303,3.5249,3.5443,3.5403,3.5417,3.5412,3.5426,3.5436,3.5425,3.5227,0,0,0,0,0,3.4631,3.4708,3.4781,3.4879,3.4911,3.4961,3.5008,3.5025,3.5094,3.5121,3.5174,3.5242,3.5324,3.5377,3.5456,3.5582,3.5602,3.5636,3.5647,3.5655,3.5667,3.5739,3.5755,3.5577,3.5577,3.5577,0,0,3.4667,3.4724,3.4771,3.4883,3.4935,3.5015,3.4984,3.507,3.5131,3.5135,3.5245,3.5286,3.5365,3.5485,3.5541,3.5523,3.572,3.5665,3.5671,3.5679,3.5749,3.5765,3.578,3.5583,3.5582,3.5581,0,0,3.4774,3.4824,3.4912,3.4965,3.5043,3.5076,3.5097,3.5177,3.5204,3.5315,3.532,3.5394,3.5533,3.559,3.5636,3.5766,3.5767,3.5791,3.5847,3.5916,3.5931,3.5943,3.5992,3.6008,3.5803,3.5803,3.5803,0,3.4809,3.4929,3.4957,3.5044,3.5095,3.5101,3.5192,3.5242,3.5342,3.5378,3.5356,3.5532,3.5585,3.572,3.5752,3.5789,3.5816,3.5782,3.5926,3.5939,3.5951,3.5998,3.6016,3.5805,3.5805,3.5805,3.5804,0,3.497,3.5053,3.5115,3.5211,3.5269,3.5357,3.5401,3.5456,3.5468,3.5505,3.5619,3.5683,3.5776,3.5809,3.5822,3.5947,3.5933,3.5918,3.5879,3.597,3.6015,3.6033,3.5809,3.5808,3.5807,3.5807,0,0,3.509,3.5201,3.5223,3.5268,3.5356,3.5422,3.5512,3.5601,3.5649,3.5719,3.5796,3.5915,3.5902,3.5955,3.5976,3.6037,3.6138,3.6015,3.6017,3.6037,3.6282,3.6293,3.6313,3.6139,3.6142,3.6145,3.6276,0,3.5207,3.5365,3.5394,3.5533,3.5611,3.5619,3.5698,3.5761,3.5798,3.5872,3.5913,3.5997,3.5973,3.6006,3.6066,3.6113,3.6188,3.6104,3.6214,3.6217,3.6195,3.6336,3.6348,3.6468,3.6293,3.6296,3.6298,0,3.5365,3.5438,3.5584,3.5663,3.5697,3.5767,3.5853,3.5922,3.5996,3.6018,3.6079,3.6092,3.6188,3.6144,3.6278,3.622,3.6267,3.6297,3.6303,3.6315,3.6264,3.6354,3.6507,3.6526,3.6325,3.6323,3.6321,0,3.544,3.5575,3.568,3.5718,3.5812,3.5862,3.5903,3.5973,3.6026,3.6102,3.6137,3.6223,3.6271,3.6338,3.6376,3.6339,3.6508,3.6466,3.6532,3.6531,3.6568,3.6565,3.6732,3.6596,3.6595,3.6595,3.6595,0,3.5569,3.5658,3.5716,3.578,3.5882,3.5915,3.6016,3.6057,3.6119,3.6194,3.6207,3.6277,3.6322,3.6399,3.643,3.6537,3.6559,3.6581,3.6589,3.6581,3.6578,3.6613,3.6606,3.66,3.6599,3.6598,3.6597,0,3.567,3.5711,3.5827,3.5907,3.5929,3.6001,3.607,3.6135,3.6171,3.6266,3.6291,3.6349,3.6441,3.6485,3.66,3.662,3.6743,3.6744,3.6718,3.6721,3.6785,3.6779,3.6981,3.701,3.6853,3.6854,3.6855,0,3.575,3.5819,3.5906,3.5956,3.5999,3.608,3.6134,3.617,3.6226,3.6316,3.6371,3.6463,3.6539,3.6686,3.674,3.6829,3.6833,3.6898,3.6846,3.6837,3.6836,3.6832,3.684,3.6907,3.6909,3.691,3.6911,0,3.5888,3.5905,3.5982,3.6066,3.613,3.6199,3.6266,3.6307,3.6354,3.6417,3.6511,3.657,3.6687,3.6779,3.6871,3.6917,3.6923,3.6926,3.6947,3.694,3.6923,3.6935,3.6745,3.6922,3.6921,3.692,3.6919,3.6919,3.5982,3.6045,3.6116,3.6202,3.6256,3.6319,3.6384,3.6429,3.6507,3.6604,3.6622,3.6722,3.6796,3.692,3.6969,3.7049,3.7035,3.7064,3.7071,3.7078,3.7082,3.6909,3.7066,3.7066,3.7066,3.7066,3.7065,0,3.6122,3.6169,3.6247,3.6341,3.6409,3.6407,3.6482,3.6539,3.6627,3.6694,3.6769,3.6878,3.6968,3.703,3.7122,3.7175,3.718,3.7198,3.7195,3.7206,3.7089,3.7063,3.7192,3.7192,3.7192,3.7192,3.7192,3.7192,3.6203,3.631,3.6336,3.647,3.6517,3.6614,3.6657,3.6717,3.6771,3.6891,3.6966,3.7005,3.7071,3.7168,3.7252,3.7268,3.7302,3.7321,3.7337,3.7227,3.7214,3.7201,3.7177,3.7327,3.7328,3.7447,3.7448,3.7449]},{"header":{"parameterUnit":"m.s-1","parameterCategory":1,"la1":30.2991,"la2":30.254,"lo1":-89.0895,"lo2":-89.0444,"dy":0.0017,"dx":0.0017,"nx":28,"ny":28,"refTime":"2024-02-03T03:00:00:Z","depth":0,"parameterNumber":3,"parameterNumberName":"V-component_of_WINDS"},"data":[0,0,0,0,0,0,0,0,0,0,0,0,0,0,0,0,0,0,0,0,0,0,0,0,0,0,0,0,0,0,0,0,0,0,0,0,0,0,0,0,0,0,0,0,0,0,0,0,0,0,0,0,0,0,0,0,0,0,-2.673,-2.6731,0,-2.6894,-2.6896,-2.6898,-2.6964,-2.6964,-2.6963,-2.6963,-2.7133,-2.7138,-2.7143,0,0,0,0,0,0,0,0,0,0,0,0,0,-2.6475,-2.6479,-2.673,-2.6732,-2.6734,-2.6894,-2.6896,-2.6899,-2.6964,-2.6964,-2.6963,-2.6963,-2.7131,-2.7137,-2.7143,0,0,0,0,0,0,0,0,0,0,0,0,0,-2.6607,-2.648,-2.6729,-2.6786,-2.6792,-2.6894,-2.6896,-2.6899,-2.6964,-2.6964,-2.6963,-2.6963,-2.713,-2.7137,-2.7144,-2.7202,0,0,-2.7166,-2.717,0,0,0,0,0,0,0,0,-2.6599,-2.6616,-2.6775,-2.6782,-2.679,-2.6908,-2.6869,-2.7001,-2.6965,-2.6899,-2.6963,-2.6962,-2.7059,-2.7072,-2.7104,-2.721,-2.7217,-2.7167,-2.7172,-2.7175,-2.7177,0,0,0,0,0,0,0,-2.659,-2.661,-2.6795,-2.6778,-2.6786,-2.6804,-2.6822,-2.6894,-2.698,-2.6905,-2.691,-2.6928,-2.7063,-2.7097,-2.7109,-2.7219,-2.7167,-2.7173,-2.7178,-2.7181,-2.7382,-2.7383,0,0,0,0,0,0,-2.6571,-2.6601,-2.679,-2.68,-2.6691,-2.6809,-2.6829,-2.6871,-2.698,-2.6996,-2.6929,-2.6931,-2.7085,-2.71,-2.7115,-2.7191,-2.7175,-2.7182,-2.7186,-2.7381,-2.7383,-2.7384,0,0,0,0,0,0,-2.6566,-2.6587,-2.6783,-2.6702,-2.6728,-2.6814,-2.686,-2.6874,-2.6909,-2.6998,-2.7014,-2.6948,-2.7085,-2.7105,-2.718,-2.7197,-2.7185,-2.7192,-2.738,-2.7382,-2.7383,-2.7342,0,0,0,0,0,0,-2.6558,-2.6585,-2.6607,-2.6702,-2.6732,-2.6844,-2.6861,-2.6878,-2.6921,-2.6925,-2.702,-2.7035,-2.7086,-2.7169,-2.7187,-2.7207,-2.7197,-2.7379,-2.7381,-2.7383,-2.7342,-2.7341,-2.7341,0,0,0,0,0,-2.6549,-2.6589,-2.6608,-2.663,-2.6762,-2.6845,-2.6862,-2.6919,-2.6922,-2.6946,-2.7003,-2.7032,-2.7192,-2.7176,-2.7197,-2.722,-2.7378,-2.738,-2.7382,-2.7342,-2.7341,-2.7341,0,0,0,0,0,0,-2.6493,-2.6602,-2.6624,-2.6696,-2.6761,-2.6856,-2.6887,-2.6917,-2.6982,-2.6984,-2.7053,-2.7073,-2.7143,-2.7189,-2.7169,-2.7282,-2.7288,-2.7294,-2.7249,-2.725,-2.7249,-2.7237,-2.7203,0,0,0,0,0,-2.6489,-2.6547,-2.664,-2.6694,-2.6726,-2.68,-2.6839,-2.6878,-2.6947,-2.6975,-2.7038,-2.7106,-2.7172,-2.7213,-2.7279,-2.7349,-2.7371,-2.7375,-2.7375,-2.7374,-2.7379,-2.7421,-2.7424,-2.739,-2.739,-2.739,0,0,-2.6482,-2.6549,-2.6581,-2.6685,-2.6739,-2.6799,-2.6823,-2.6885,-2.693,-2.6985,-2.706,-2.7109,-2.7188,-2.7262,-2.7297,-2.7302,-2.7394,-2.7377,-2.7376,-2.7381,-2.7424,-2.7427,-2.7429,-2.7392,-2.7392,-2.7391,0,0,-2.6499,-2.6555,-2.6607,-2.6662,-2.6744,-2.6794,-2.6806,-2.6898,-2.6932,-2.7008,-2.7051,-2.7107,-2.7218,-2.7274,-2.7316,-2.7356,-2.7386,-2.7376,-2.7374,-2.7414,-2.7417,-2.7419,-2.7434,-2.7439,-2.738,-2.738,-2.738,0,-2.648,-2.657,-2.663,-2.669,-2.6735,-2.6788,-2.6842,-2.6892,-2.6991,-2.7022,-2.7026,-2.7168,-2.7225,-2.7313,-2.7323,-2.7356,-2.7373,-2.7365,-2.7411,-2.7415,-2.7418,-2.7433,-2.7438,-2.7378,-2.7379,-2.7379,-2.7379,0,-2.6543,-2.6605,-2.6637,-2.6732,-2.6781,-2.6837,-2.6907,-2.6949,-2.6984,-2.7034,-2.7112,-2.7183,-2.7264,-2.7288,-2.7322,-2.7381,-2.7382,-2.7398,-2.7405,-2.7418,-2.7434,-2.744,-2.7376,-2.7377,-2.7377,-2.7378,0,0,-2.6528,-2.6657,-2.6667,-2.6712,-2.6807,-2.6857,-2.6917,-2.6996,-2.7032,-2.7099,-2.7151,-2.7245,-2.7261,-2.731,-2.7351,-2.7387,-2.7415,-2.7399,-2.7402,-2.74,-2.7485,-2.7472,-2.7478,-2.7435,-2.7437,-2.7438,-2.7479,0,-2.6558,-2.6666,-2.6723,-2.6807,-2.6866,-2.6918,-2.6971,-2.7035,-2.7084,-2.7142,-2.7196,-2.7262,-2.7278,-2.7307,-2.7345,-2.7403,-2.7433,-2.7401,-2.7485,-2.7488,-2.7463,-2.7486,-2.7473,-2.7508,-2.7485,-2.7486,-2.7487,0,-2.6607,-2.6674,-2.6764,-2.6854,-2.6881,-2.6927,-2.7005,-2.706,-2.7135,-2.7168,-2.7223,-2.7264,-2.733,-2.7332,-2.7425,-2.7402,-2.744,-2.7475,-2.7477,-2.7487,-2.7488,-2.7497,-2.752,-2.7525,-2.7497,-2.7496,-2.7495,0,-2.6588,-2.6701,-2.677,-2.6806,-2.6913,-2.6944,-2.699,-2.7065,-2.7109,-2.7178,-2.7208,-2.7283,-2.7325,-2.7383,-2.7444,-2.7439,-2.7531,-2.7538,-2.7561,-2.7559,-2.7577,-2.7575,-2.7607,-2.7602,-2.7601,-2.7601,-2.7601,0,-2.6616,-2.6669,-2.6763,-2.6805,-2.6867,-2.6932,-2.6992,-2.7042,-2.7109,-2.7163,-2.7212,-2.7262,-2.7339,-2.7399,-2.7448,-2.7518,-2.7536,-2.7565,-2.7577,-2.7561,-2.7557,-2.7586,-2.7585,-2.7603,-2.7603,-2.7602,-2.7602,0,-2.6605,-2.6669,-2.6748,-2.6843,-2.6868,-2.6909,-2.6991,-2.7035,-2.7087,-2.7155,-2.7174,-2.7256,-2.7329,-2.7395,-2.7493,-2.7525,-2.7596,-2.7612,-2.7571,-2.7577,-2.7597,-2.7594,-2.7649,-2.766,-2.7646,-2.7646,-2.7646,0,-2.6618,-2.666,-2.676,-2.6799,-2.6844,-2.6907,-2.6953,-2.702,-2.7066,-2.7156,-2.7189,-2.7266,-2.733,-2.7445,-2.7513,-2.7588,-2.7606,-2.762,-2.7618,-2.76,-2.7607,-2.7604,-2.7609,-2.7619,-2.7619,-2.7619,-2.7619,0,-2.6634,-2.6665,-2.6728,-2.6804,-2.6857,-2.692,-2.6985,-2.7014,-2.7094,-2.7143,-2.7218,-2.7269,-2.7368,-2.7444,-2.7527,-2.7576,-2.7611,-2.7619,-2.7629,-2.7612,-2.7586,-2.7601,-2.7569,-2.7617,-2.7618,-2.7618,-2.7618,-2.7618,-2.6636,-2.6677,-2.6753,-2.6823,-2.6879,-2.6938,-2.6984,-2.7042,-2.7106,-2.7192,-2.7228,-2.7304,-2.7381,-2.7496,-2.7545,-2.7606,-2.7613,-2.7627,-2.763,-2.7632,-2.7629,-2.7577,-2.7622,-2.7622,-2.7622,-2.7622,-2.7622,0,-2.6656,-2.6708,-2.6772,-2.686,-2.6916,-2.6944,-2.7017,-2.7062,-2.7128,-2.7196,-2.7259,-2.7347,-2.7421,-2.7496,-2.7574,-2.761,-2.7628,-2.7628,-2.7626,-2.7637,-2.7618,-2.7603,-2.7612,-2.7612,-2.7612,-2.7612,-2.7612,-2.7612,-2.6673,-2.6743,-2.6782,-2.6881,-2.6934,-2.7008,-2.7048,-2.7104,-2.7159,-2.7253,-2.7315,-2.7364,-2.7435,-2.752,-2.7589,-2.761,-2.7637,-2.7632,-2.7657,-2.7638,-2.7638,-2.7638,-2.7624,-2.7638,-2.7638,-2.7671,-2.7671,-2.7671]}]]